Regional Weather Roundup
Issued by NWS

Home | Current Version | Previous Version | Text Only | Print | Product List | Glossary Off
Versions: 1 2 3 4 5 6 7 8 9 10 11 12 13 14 15 16 17 18 19 20 21 22 23 24 25 26 27 28 29 30 31 32 33 34 35 36 37 38 39 40 41 42 43 44 45 46 47 48 49 50

000
ASUS43 KFSD 072102
RWRSD

WEATHER ROUNDUP FOR SOUTH DAKOTA
NATIONAL WEATHER SERVICE SIOUX FALLS SD
400 PM CDT TUE JUL 07 2015

NOTE: "FAIR" INDICATES FEW OR NO CLOUDS BELOW 12,000 FEET WITH NO
SIGNIFICANT WEATHER AND/OR OBSTRUCTIONS TO VISIBILITY.


SDZ001>005-009-010-012>017-072200-
NORTHWEST AND NORTH CENTRAL SOUTH DAKOTA

CITY           SKY/WX    TMP DP  RH WIND       PRES   REMARKS
BUFFALO          N/A     79  49  34 S12       29.93F
FAITH            N/A     76  57  51 S24G31    30.04F
MOBRIDGE       MOSUNNY   77  56  48 SE16      30.06F
$$

SDZ012>016-024>037-041>051-057-063-072>074-072200-
SOUTHWEST AND SOUTH CENTRAL SOUTH DAKOTA

CITY           SKY/WX    TMP DP  RH WIND       PRES   REMARKS
RAPID CTY ARPT SUNNY     75  59  57 S20G25    30.05F
PIERRE         MOSUNNY   74  57  55 SE16G22   30.07F
CUSTER         CLOUDY    64  53  67 S9        30.16S HAZE
ELLSWORTH AFB  MOSUNNY   75  59  57 S20G29    30.03F
PHILIP         PTSUNNY   77  57  50 SE17      30.05F
PINE RIDGE     CLOUDY    70  54  56 S15       30.10F
WINNER         FAIR      76  54  46 E10       30.12F
$$

SDZ004>011-016>023-039-040-072200-
NORTHEAST SOUTH DAKOTA

CITY           SKY/WX    TMP DP  RH WIND       PRES   REMARKS
ABERDEEN       SUNNY     73  44  35 S12       30.12F
WATERTOWN      SUNNY     68  45  43 SE9       30.15F
BROOKINGS      SUNNY     66  46  48 S7        30.18S
SISSETON         N/A     71  45  39 S6        30.13F
$$

SDZ017-020-022-023-036>040-048>070-072200-
SOUTHEAST SOUTH DAKOTA

CITY           SKY/WX    TMP DP  RH WIND       PRES   REMARKS
SIOUX FALLS    PTSUNNY   69  48  47 E6        30.15F
HURON          MOSUNNY   68  44  42 S7        30.13F
MITCHELL       MOSUNNY   71  48  43 E7        30.15F
YANKTON        SUNNY     70  48  46 NE8       30.13F
$$

ABBREVIATIONS USED IN REMARKS
   TC - TEMPERATURE IN CELSIUS
  WCI - WIND CHILL INDEX
   HX - HEAT INDEX
  VSB - VISIBILITY



USA.gov is the U.S. government's official web portal to all federal, state and local government web resources and services.